Regional Weather Roundup
Issued by NWS

Home | Current Version | Previous Version | Text Only | Print | Product List | Glossary On
Versions: 1 2 3 4 5 6 7 8 9 10 11 12 13 14 15 16 17 18 19 20 21 22 23 24 25 26 27 28 29 30 31 32 33 34 35 36 37 38 39 40 41 42 43 44 45 46 47 48 49 50
000
ASUS43 KDTX 031010
RWRMI
MICHIGAN HOURLY REGIONAL WEATHER ROUNDUP
NATIONAL WEATHER SERVICE DETROIT/PONTIAC MI
ISSUED BY NATIONAL WEATHER SERVICE GRAND RAPIDS MI
600 AM EDT THU SEP 03 2015

NOTE: "FAIR" INDICATES FEW OR NO CLOUDS BELOW 12,000 FEET WITH NO
SIGNIFICANT WEATHER AND/OR OBSTRUCTION TO VISIBILITY.

MIZ047>049-052>055-059>063-066>070-074>076-081>083-031100-
SOUTHEAST LOWER MICHIGAN

CITY           SKY/WX    TMP DP  RH WIND       PRES   REMARKS
ADRIAN         CLEAR     69  67  93 W5        29.99R FOG
ALMA           PTCLDY    70  68  93 SW5       29.96R
ANN ARBOR      CLEAR     66  64  93 SW3       29.97R FOG
BAD AXE        CLOUDY    63  63  99 CALM      29.97S FOG
DETROIT CITY   PTCLDY    70  66  87 CALM      29.96S
DETROIT        CLOUDY    72  68  87 CALM      29.97R FOG
FLINT          PTCLDY    69  65  86 CALM      29.97S
GROSSE ILE     MOCLDY    70  66  88 CALM      29.96R FOG
HILLSDALE      PTCLDY    71  70  96 CALM      30.00R
HOWELL         CLEAR     69  67  94 SW5       29.97F FOG

CITY           SKY/WX    TMP DP  RH WIND       PRES   REMARKS
JACKSON        CLEAR     68  66  93 CALM      29.99R FOG
LANSING        PTCLDY    69  66  90 SW3       29.97S
MASON          FOG       67  65  91 S3        29.98S VSB 3/4
MONROE         MOCLDY    69  67  94 CALM      29.96R FOG
MT. CLEMENS    CLEAR     66  65  97 N3        29.94S
PONTIAC        PTCLDY    67  65  93 CALM      29.97S FOG
PORT HOPE        N/A     66  65  96 SW5       29.95S
PORT HURON     FOG       63  63 100 CALM      29.96S VSB 3/4
TRI CITIES     CLEAR     67  64  90 E5        29.97S
YPSILANTI      PTCLDY    69  65  86 NE5       29.98R
$$
MIZ043>046-050>051-056>058-064>065-071>073-077>080-031100-
SOUTHWEST LOWER MICHIGAN

CITY           SKY/WX    TMP DP  RH WIND       PRES   REMARKS
BATTLE CREEK   PTCLDY    71  68  90 CALM      29.98S FOG
BENTON HARBOR  CLEAR     69  67  93 CALM      29.96S FOG
BIG RAPIDS     LGT RAIN  68  67  97 CALM      29.94F
COLDWATER      PTCLDY    69  67  94 CALM      29.99S
HOLLAND        PTCLDY    69  67  93 S5        29.96S FOG
GRAND RAPIDS   MOCLDY    71  69  93 S3        29.96S FOG
KALAMAZOO      PTCLDY    71  68  90 SW5       29.98S
MARSHALL       CLEAR     67  65  96 CALM      29.97F FOG
MOUNT PLEASANT PTCLDY    68  66  94 CALM      29.96R FOG
MUSKEGON       CLOUDY    74  68  81 S7        29.93F
STURGIS        CLEAR     68  66  94 CALM      29.98S
$$
MIZ016>042-031100-
NORTHERN LOWER MICHIGAN

CITY           SKY/WX    TMP DP  RH WIND       PRES   REMARKS
ALPENA         PTCLDY    63  62  97 CALM      29.97R
BEAVER ISLAND  RAIN      65  63  93 E10       29.96R
BELLAIRE       LGT RAIN  68  65  90 NE3       29.95R
CADILLAC       CLOUDY    70  67  90 S5        29.94F
CHARLEVOIX     HVY RAIN  66  65  97 N9        30.00R
GAYLORD        MOCLDY    66  65  96 CALM      29.97S THUNDER
HOUGHTON LAKE  PTCLDY    63  62  97 E3        29.97S FOG
MANISTEE       CLOUDY    70  64  83 NW13      29.91R THUNDER
OSCODA         MOCLDY    64  64  99 CALM      29.96R
PELLSTON       LGT RAIN  65  62  90 W12       29.98R
TRAVERSE CITY  HVY RAIN  69  67  93 NE5       29.91F FOG
LUDINGTON      CLOUDY    76  69  79 S7        29.89F
$$
MIZ007>008-015-031100-
EASTERN UPPER MICHIGAN

CITY           SKY/WX    TMP DP  RH WIND       PRES   REMARKS
KINROSS        CLOUDY    64  64 100 CALM      29.97S
MACKINAC ISLAN CLOUDY    65  63  93 NW8       29.97R
NEWBERRY       CLOUDY    62  61  98 SE8       29.95F
S. S. MARIE    CLOUDY    65  64  97 CALM      29.96S
$$
MIZ004>006-011>014-085-031100-
CENTRAL UPPER MICHIGAN

CITY           SKY/WX    TMP DP  RH WIND       PRES   REMARKS
MANISTIQUE     CLOUDY    65  63  94 E7        29.93R
ESCANABA       CLOUDY    66  66 100 NE8       29.90S
MENOMINEE      CLOUDY    66  63  88 E6        29.88S
$$
MIZ001>003-009>011-084-031100-
WESTERN UPPER MICHIGAN

CITY           SKY/WX    TMP DP  RH WIND       PRES   REMARKS
IRON MOUNTAIN  CLOUDY    65  64  97 N5        29.93S
HOUGHTON       FOG       61  60  97 E6        29.97R VSB 1
COPPER HARBOR    N/A     57  54  89 SW5       29.97R
IRONWOOD       CLOUDY    55  55 100 CALM      29.94F VSB<1/4
$$

ABBREVIATIONS USED IN REMARKS
   TC - TEMPERATURE IN CELSIUS
  WCI - WIND CHILL INDEX
   HX - HEAT INDEX
  VSB - VISIBILITY



USA.gov is the U.S. government's official web portal to all federal, state and local government web resources and services.